Torna al catalogo

COSMOS 1275 DEB

AttivoPO
NORAD 13024·DEBRIS·🇷🇺 Russia

Lanciato Jun 4, 1981 da Plesetsk Cosmodrome

Loading…

Prossimi Passaggi (prossime 24 ore)

TLE

AggiornatoSource: Space-Track

Epoca: Sep 14, 2026, 13:20 UTC

1 13024U 81053EW  26257.55594044  .00000390  00000-0  21999-3 0  9990
2 13024  82.9223 187.6619 0043801 166.9463 315.8942 14.07481585272902

Traccia COSMOS 1275 DEB in tempo reale con AllMySat

Download on the App Store